Starlink 11510

operational
NORAD ID: 62516 Int'l Des: 2025-004 Owner: SPXS Country: US Constellation: starlink
LEOCIRCULAR

关于 Starlink 11510

正在加载描述...

实时位置

正在加载3D地球...

即将过境

高度历史

Altitude vs Time

uPlot chart will show altitude changes over time

两行轨道根数

1 62516U 25004F 25353.62674598 .00270162 00000-0 20288-2 0 9996
2 62516 43.0000 193.5968 0002951 279.8657 80.1877 15.70984317 54613
Epoch: Dec 19, 2025 • Age: 10 hours

当前状态

高度 358.2 km
速度 7.70 km/s
星下点 -15.62°S, 76.3°W
发射日期 Jan 8, 2025
运行时间 0.9 years
类型 internet

技术详情

分类 Payload
质量 960.00 kg
干质量 910.00 kg
总质量 960.00 kg
长度 0.30 m
直径 4.10 m
跨度 29.00 m
形状 Box + pan
制造商 SPXS
平台类型 Starlink V2MD
阶段状态 In Orbit
所有者/国家 SPXS/US

大型星座

Loading constellations...